STARLINK-1916 (46766 NORAD) Tracking and Keplerian Element Data

This shows tracking and keplerian element data for the satellite.

Feedback or suggestion? Click here.




ElementValue
Catalog46766
NameSTARLINK-1916
Epoch Orbit180
Epoch Day327.91667824
Epoch Year2020
RAAN16.8161
Inclination53.0565
Eccentricity0.0001288
Argument of Perigee73.8166
Mean Anonmoly119.7771
Mean Motion15.54012884
Decay Rate-0.01088237
L11 46766U 20074AD 20327.91667824 -.01088237 00000-0 -18234-1 0 9999
L22 46766 53.0565 16.8161 0001288 73.8166 119.7771 15.54012884 1808

Live tracking and technical data element details for STARLINK-1916 (NORAD 46766). STARLINK-1916 can be tracked NOW for your location showing map with azimuth and elevation plus other details from your city location.

Track the satellite on the map from your city or location and see movement details for azimuth, elevation, latitude, longitude, range, height, and movement on the map or in text.







IsCatalogInMostPopularTable: catalog: 46766, numindb: 7
Update: records affected: 1



GetName: 46766 STARLINK-1916

Hit Count: updated at: Tue, 24 Nov 2020 12:21:00 GMT